• In Belgium
  • List of Countries
  • For 7 days
  • Water Temperature
  • Satellite Maps
  • Weather Map
  • Weather Widgets
  • user-avatar
    Login

    Hourly Weather Gorlovka

    Today, 20 July, Friday

    Time Temperature Precipitation Wind Pressure Humidity
    00:00 +21°C° 0 mm 2 mps 729 mmHg 77%
    01:00 +20°C° 0 mm 2 mps 729 mmHg 79%
    02:00 +20°C° 0 mm 2 mps 729 mmHg 81%
    03:00 +20°C° 0 mm 2 mps 729 mmHg 82%
    04:00 +20°C° 0 mm 2 mps 729 mmHg 82%
    05:00 +20°C° 0 mm 2 mps 729 mmHg 82%
    06:00 +21°C° 0 mm 1 mps 729 mmHg 82%
    07:00 +21°C° 0.1 mm 2 mps 729 mmHg 76%
    08:00 +24°C° 0.1 mm 2 mps 729 mmHg 70%
    09:00 +25°C° 0.1 mm 2 mps 729 mmHg 64%
    10:00 +27°C° 0.5 mm 2 mps 729 mmHg 59%
    11:00 +28°C° 0.5 mm 2 mps 730 mmHg 54%
    12:00 +29°C° 0.5 mm 2 mps 730 mmHg 49%
    13:00 +29°C° 0.2 mm 3 mps 730 mmHg 49%
    14:00 +29°C° 0.2 mm 3 mps 730 mmHg 48%
    15:00 +29°C° 0.2 mm 4 mps 730 mmHg 48%
    16:00 +29°C° 0 mm 3 mps 730 mmHg 49%
    17:00 +29°C° 0 mm 3 mps 729 mmHg 51%
    18:00 +29°C° 0 mm 3 mps 729 mmHg 52%
    19:00 +27°C° 0.2 mm 3 mps 729 mmHg 57%
    20:00 +26°C° 0.2 mm 2 mps 729 mmHg 62%
    21:00 +25°C° 0.2 mm 2 mps 729 mmHg 66%
    22:00 +24°C° 0.7 mm 2 mps 730 mmHg 71%
    23:00 +23°C° 0.7 mm 2 mps 730 mmHg 75%

    Tomorrow, 21 July, Saturday

    Time Temperature Precipitation Wind Pressure Humidity
    00:00 +21°C° 0.7 mm 2 mps 730 mmHg 79%
    01:00 +21°C° 0.1 mm 2 mps 730 mmHg 81%
    02:00 +21°C° 0.1 mm 2 mps 730 mmHg 82%
    03:00 +20°C° 0.1 mm 2 mps 730 mmHg 84%
    04:00 +20°C° 0 mm 2 mps 730 mmHg 83%
    05:00 +21°C° 0 mm 2 mps 730 mmHg 83%
    06:00 +21°C° 0 mm 2 mps 730 mmHg 82%
    07:00 +24°C° 0 mm 2 mps 730 mmHg 74%
    08:00 +25°C° 0 mm 2 mps 730 mmHg 66%
    09:00 +27°C° 0 mm 2 mps 731 mmHg 58%
    10:00 +28°C° 0 mm 3 mps 731 mmHg 53%
    11:00 +29°C° 0 mm 3 mps 731 mmHg 48%
    12:00 +30°C° 0 mm 3 mps 731 mmHg 44%
    13:00 +30°C° 0 mm 3 mps 731 mmHg 44%
    14:00 +30°C° 0 mm 4 mps 731 mmHg 45%
    15:00 +30°C° 0 mm 4 mps 731 mmHg 46%
    16:00 +30°C° 0 mm 3 mps 731 mmHg 48%
    17:00 +29°C° 0 mm 3 mps 731 mmHg 49%
    18:00 +29°C° 0 mm 3 mps 730 mmHg 51%
    19:00 +28°C° 0 mm 3 mps 731 mmHg 55%
    20:00 +27°C° 0 mm 3 mps 731 mmHg 59%
    21:00 +25°C° 0 mm 2 mps 731 mmHg 63%
    22:00 +25°C° 0 mm 2 mps 731 mmHg 66%
    23:00 +24°C° 0 mm 2 mps 731 mmHg 68%

    Day after tomorrow, 22 July, Sunday

    Time Temperature Precipitation Wind Pressure Humidity
    00:00 +23°C° 0 mm 2 mps 731 mmHg 71%
    01:00 +23°C° 0 mm 2 mps 731 mmHg 72%
    02:00 +23°C° 0 mm 2 mps 731 mmHg 73%
    03:00 +23°C° 0 mm 2 mps 730 mmHg 75%
    04:00 +23°C° 0 mm 2 mps 730 mmHg 75%
    05:00 +23°C° 0 mm 2 mps 731 mmHg 76%
    06:00 +23°C° 0 mm 2 mps 731 mmHg 77%
    07:00 +24°C° 0 mm 2 mps 731 mmHg 71%
    08:00 +26°C° 0 mm 2 mps 731 mmHg 66%
    09:00 +28°C° 0 mm 3 mps 731 mmHg 60%
    10:00 +29°C° 0.1 mm 3 mps 731 mmHg 56%
    11:00 +30°C° 0.1 mm 3 mps 731 mmHg 52%
    12:00 +32°C° 0.1 mm 4 mps 731 mmHg 48%
    13:00 +32°C° 0 mm 4 mps 731 mmHg 47%
    14:00 +32°C° 0 mm 4 mps 731 mmHg 47%
    15:00 +31°C° 0 mm 3 mps 731 mmHg 46%
    16:00 +31°C° 0 mm 3 mps 731 mmHg 47%
    17:00 +30°C° 0 mm 3 mps 731 mmHg 48%
    18:00 +30°C° 0 mm 3 mps 731 mmHg 49%
    19:00 +29°C° 0 mm 3 mps 731 mmHg 52%
    20:00 +28°C° 0 mm 2 mps 731 mmHg 56%
    21:00 +26°C° 0 mm 2 mps 731 mmHg 60%
    22:00 +26°C° 0.2 mm 1 mps 731 mmHg 63%
    23:00 +25°C° 0.2 mm 1 mps 731 mmHg 66%

    23 July, Monday

    Time Temperature Precipitation Wind Pressure Humidity
    00:00 +24°C° 0.2 mm 1 mps 731 mmHg 69%
    01:00 +24°C° 0.2 mm 1 mps 731 mmHg 70%
    02:00 +23°C° 0.2 mm 1 mps 731 mmHg 72%
    03:00 +23°C° 0.2 mm 1 mps 731 mmHg 73%
    04:00 +23°C° 0 mm 1 mps 731 mmHg 74%
    05:00 +21°C° 0 mm 0 mps 731 mmHg 74%
    06:00 +21°C° 0 mm 0 mps 731 mmHg 74%
    07:00 +25°C° 0.6 mm 1 mps 731 mmHg 69%
    08:00 +26°C° 0.6 mm 1 mps 731 mmHg 64%
    09:00 +28°C° 0.6 mm 1 mps 731 mmHg 59%
    10:00 +28°C° 0.8 mm 1 mps 732 mmHg 56%
    11:00 +29°C° 0.8 mm 1 mps 732 mmHg 52%
    12:00 +30°C° 0.8 mm 1 mps 732 mmHg 48%
    13:00 +30°C° 0 mm 1 mps 732 mmHg 48%
    14:00 +30°C° 0 mm 1 mps 732 mmHg 48%
    15:00 +30°C° 0 mm 1 mps 731 mmHg 48%
    16:00 +30°C° 0 mm 1 mps 732 mmHg 48%
    17:00 +30°C° 0 mm 1 mps 732 mmHg 49%
    18:00 +30°C° 0 mm 1 mps 732 mmHg 49%
    19:00 +29°C° 0.1 mm 1 mps 732 mmHg 53%
    20:00 +28°C° 0.1 mm 1 mps 732 mmHg 56%
    21:00 +26°C° 0.1 mm 1 mps 732 mmHg 59%
    22:00 +26°C° 0.5 mm 1 mps 732 mmHg 63%
    23:00 +25°C° 0.5 mm 1 mps 732 mmHg 67%

    24 July, Tuesday

    Time Temperature Precipitation Wind Pressure Humidity
    00:00 +24°C° 0.5 mm 1 mps 732 mmHg 70%
    01:00 +24°C° 0.2 mm 1 mps 732 mmHg 72%
    02:00 +23°C° 0.2 mm 1 mps 732 mmHg 74%
    03:00 +23°C° 0.2 mm 1 mps 732 mmHg 76%
    04:00 +23°C° 0 mm 1 mps 732 mmHg 76%
    05:00 +23°C° 0 mm 1 mps 732 mmHg 76%
    06:00 +23°C° 0 mm 1 mps 732 mmHg 76%
    07:00 +25°C° 0.3 mm 1 mps 732 mmHg 70%
    08:00 +26°C° 0.3 mm 1 mps 732 mmHg 64%
    09:00 +28°C° 0.3 mm 1 mps 732 mmHg 58%
    10:00 +29°C° 0.3 mm 1 mps 732 mmHg 54%
    11:00 +30°C° 0.3 mm 1 mps 732 mmHg 49%
    12:00 +31°C° 0.3 mm 1 mps 733 mmHg 44%
    13:00 +31°C° 0 mm 1 mps 732 mmHg 44%
    14:00 +32°C° 0 mm 1 mps 732 mmHg 44%
    15:00 +32°C° 0 mm 1 mps 732 mmHg 43%
    16:00 +31°C° 0 mm 1 mps 732 mmHg 45%
    17:00 +31°C° 0 mm 1 mps 732 mmHg 46%
    18:00 +31°C° 0 mm 1 mps 732 mmHg 48%
    19:00 +30°C° 0 mm 1 mps 732 mmHg 50%
    20:00 +29°C° 0 mm 1 mps 732 mmHg 53%
    21:00 +28°C° 0 mm 1 mps 732 mmHg 55%
    22:00 +27°C° 0.2 mm 1 mps 732 mmHg 60%
    23:00 +26°C° 0.2 mm 2 mps 732 mmHg 64%

    25 July, Wednesday

    Time Temperature Precipitation Wind Pressure Humidity
    00:00 +25°C° 0.2 mm 2 mps 732 mmHg 69%
    01:00 +24°C° 0 mm 2 mps 732 mmHg 71%
    02:00 +24°C° 0 mm 2 mps 732 mmHg 73%
    03:00 +24°C° 0 mm 2 mps 732 mmHg 75%
    04:00 +23°C° 0.1 mm 2 mps 732 mmHg 76%
    05:00 +23°C° 0.1 mm 1 mps 732 mmHg 76%
    06:00 +23°C° 0.1 mm 1 mps 733 mmHg 77%
    07:00 +25°C° 0.2 mm 1 mps 733 mmHg 71%
    08:00 +27°C° 0.2 mm 1 mps 733 mmHg 64%
    09:00 +28°C° 0.2 mm 1 mps 733 mmHg 58%
    10:00 +29°C° 0.2 mm 1 mps 733 mmHg 53%
    11:00 +30°C° 0.2 mm 1 mps 733 mmHg 48%
    12:00 +31°C° 0.2 mm 1 mps 733 mmHg 44%
    13:00 +32°C° 0 mm 1 mps 733 mmHg 43%
    14:00 +32°C° 0 mm 1 mps 733 mmHg 43%
    15:00 +32°C° 0 mm 1 mps 733 mmHg 43%
    16:00 +32°C° 0 mm 1 mps 733 mmHg 44%
    17:00 +31°C° 0 mm 1 mps 733 mmHg 46%
    18:00 +31°C° 0 mm 1 mps 733 mmHg 47%
    19:00 +30°C° 0 mm 1 mps 733 mmHg 50%
    20:00 +29°C° 0 mm 2 mps 734 mmHg 53%
    21:00 +28°C° 0 mm 2 mps 734 mmHg 55%
    22:00 +27°C° 0 mm 2 mps 734 mmHg 58%
    23:00 +26°C° 0 mm 2 mps 734 mmHg 60%
    Show more